Orbital Elements at Epoch 2459200.5 (2020-Dec-17.0) TDB
Reference: JPL 26 (heliocentric ecliptic J2000)
Element | Value | Uncertainty (1-sigma) | Units |
e | .1593190026535353 | 4.4009e-08 | |
a | 2.665033139726455 | 2.3733e-08 | au |
q | 2.240442717866617 | 1.1765e-07 | au |
i | 12.12165987075052 | 5.2749e-06 | deg |
node | 221.9007096705607 | 2.0891e-05 | deg |
peri | 17.30183694240711 | 2.7714e-05 | deg |
M | 235.323443165933 | 2.3825e-05 | deg |
tp | 2459750.844520566142 (2022-Jun-20.34452057) | 0.00011041 | TDB |
period | 1589.104098114419 4.35 | 2.1227e-05 5.812e-08 | d yr |
n | .2265427421823182 | 3.0262e-09 | deg/d |
Q | 3.089623561586294 | 2.7514e-08 | au |
|
| | Orbit Determination Parameters
Additional Information
|